[[{"header":{"parameterUnit":"m.s-1","parameterCategory":1,"la1":30.2992,"la2":30.254,"lo1":-89.0895,"lo2":-89.0443,"dy":0.0025,"dx":0.0025,"nx":19,"ny":19,"refTime":"2026-05-22T03:00:00:Z","depth":0,"parameterNumber":2,"parameterNumberName":"U-component_of_WINDS"},"data":[0,0,0,-2.364,-2.3639,-2.3563,-2.3563,-2.3472,-2.3471,0,0,0,0,0,0,0,0,0,0,0,-2.3668,-2.3667,-2.364,-2.3639,-2.3563,-2.3563,-2.3472,-2.3471,0,0,0,0,0,0,0,0,0,0,0,-2.3668,-2.3667,-2.3667,-2.3638,-2.3564,-2.3563,-2.3472,-2.3527,0,0,0,0,0,0,0,0,0,0,-2.3599,-2.363,-2.3667,-2.3667,-2.3638,-2.3564,-2.3563,-2.3529,-2.3523,-2.3509,0,-2.3499,0,-2.3484,-2.3466,-2.3466,0,0,0,-2.3634,-2.3635,-2.361,-2.3667,-2.3637,-2.3564,-2.3596,-2.3526,-2.3519,-2.3501,-2.3498,-2.3495,-2.3483,-2.3465,-2.3465,-2.3401,-2.3401,0,0,-2.3638,-2.3656,-2.3615,-2.3606,-2.362,-2.3599,-2.3594,-2.3522,-2.3519,-2.3498,-2.3492,-2.3481,-2.3465,-2.3464,-2.3401,-2.3401,0,0,0,-2.3653,-2.366,-2.3636,-2.361,-2.3596,-2.3596,-2.3591,-2.3522,-2.3513,-2.3491,-2.348,-2.3464,-2.3463,-2.3401,-2.3401,-2.3415,0,0,0,-2.3655,-2.3668,-2.3638,-2.3649,-2.3598,-2.3558,-2.3593,-2.3518,-2.3509,-2.3481,-2.3464,-2.3462,-2.3401,-2.3401,-2.3414,-2.3418,0,0,0,-2.3671,-2.367,-2.3661,-2.365,-2.3618,-2.3559,-2.3546,-2.3516,-2.3503,-2.3465,-2.3462,-2.3401,-2.3401,-2.3414,-2.3417,-2.3406,0,0,0,-2.3692,-2.3673,-2.3662,-2.3637,-2.3619,-2.3569,-2.3546,-2.3507,-2.3477,-2.3464,-2.3401,-2.3401,-2.3414,-2.3417,-2.3406,-2.34,-2.3399,0,0,-2.3679,-2.3673,-2.3656,-2.3644,-2.3601,-2.3579,-2.3537,-2.3491,-2.347,-2.3425,-2.3423,-2.3415,-2.3417,-2.3406,-2.3389,-2.3389,0,0,0,-2.3658,-2.3647,-2.3632,-2.3605,-2.357,-2.3541,-2.35,-2.3482,-2.3444,-2.3451,-2.3407,-2.3408,-2.3401,-2.3397,-2.3396,-2.3388,-2.34,-2.34,-2.34,-2.3666,-2.3641,-2.3612,-2.3579,-2.3552,-2.3511,-2.3486,-2.3456,-2.3437,-2.3427,-2.3414,-2.3407,-2.3403,-2.3402,-2.3394,-2.3409,-2.3409,-2.3409,-2.3409,-2.3644,-2.3624,-2.3601,-2.3565,-2.3538,-2.3507,-2.3465,-2.3454,-2.3419,-2.3415,-2.3407,-2.3404,-2.3403,-2.3394,-2.341,-2.3409,-2.3409,-2.3409,-2.3409,-2.3646,-2.3632,-2.3613,-2.3571,-2.354,-2.3506,-2.3474,-2.3451,-2.3428,-2.342,-2.3403,-2.3402,-2.3399,-2.3414,-2.3414,-2.3414,-2.3414,-2.3414,-2.3414,-2.3656,-2.3633,-2.3611,-2.3573,-2.3552,-2.3521,-2.3478,-2.3456,-2.3426,-2.3411,-2.3411,-2.3393,-2.3408,-2.3412,-2.3413,-2.3413,-2.3413,-2.3413,-2.3413,-2.3643,-2.3642,-2.3607,-2.3586,-2.3539,-2.351,-2.3481,-2.3438,-2.3416,-2.3401,-2.3385,-2.34,-2.3391,-2.3392,-2.3395,-2.3391,-2.3391,-2.3391,-2.3391,-2.3644,-2.3638,-2.3596,-2.3565,-2.3531,-2.35,-2.3459,-2.3425,-2.339,-2.3374,-2.3371,-2.3374,-2.3375,-2.3365,-2.3366,-2.3368,-2.3358,-2.3358,-2.3358,-2.3634,-2.3624,-2.3595,-2.3561,-2.3522,-2.3489,-2.345,-2.3412,-2.3371,-2.3356,-2.3362,-2.3363,-2.3366,-2.3369,-2.3354,-2.3355,-2.3359,0,0]},{"header":{"parameterUnit":"m.s-1","parameterCategory":1,"la1":30.2992,"la2":30.254,"lo1":-89.0895,"lo2":-89.0443,"dy":0.0025,"dx":0.0025,"nx":19,"ny":19,"refTime":"2026-05-22T03:00:00:Z","depth":0,"parameterNumber":3,"parameterNumberName":"V-component_of_WINDS"},"data":[0,0,0,5.5669,5.5671,5.5745,5.5745,5.5835,5.5835,0,0,0,0,0,0,0,0,0,0,0,5.5647,5.5648,5.5669,5.5671,5.5745,5.5745,5.5834,5.5835,0,0,0,0,0,0,0,0,0,0,0,5.5647,5.5647,5.5648,5.5671,5.5745,5.5745,5.5834,5.578,0,0,0,0,0,0,0,0,0,0,5.5709,5.5688,5.5647,5.5648,5.5672,5.5745,5.5745,5.5777,5.5783,5.58,0,5.5817,0,5.5828,5.5841,5.5842,0,0,0,5.5671,5.5683,5.5704,5.5648,5.5672,5.5745,5.5711,5.5781,5.5787,5.5808,5.5818,5.5822,5.5829,5.5842,5.5842,5.5947,5.5948,0,0,5.5667,5.5659,5.5699,5.5708,5.5699,5.5709,5.5714,5.5785,5.5794,5.5819,5.5824,5.5831,5.5843,5.5843,5.5947,5.5947,0,0,0,5.5655,5.5656,5.5675,5.5705,5.5718,5.5711,5.5717,5.5791,5.5798,5.5825,5.5832,5.5843,5.5844,5.5946,5.5947,5.5967,0,0,0,5.5653,5.565,5.5674,5.567,5.5717,5.5756,5.5722,5.5793,5.5802,5.5831,5.5843,5.5845,5.5946,5.5947,5.5965,5.5977,0,0,0,5.5642,5.5648,5.5659,5.5669,5.5701,5.5755,5.5766,5.5795,5.5806,5.5842,5.5845,5.5945,5.5947,5.5964,5.5974,5.6003,0,0,0,5.5628,5.5674,5.566,5.5713,5.5701,5.5768,5.5766,5.5816,5.5849,5.5843,5.5946,5.5947,5.5963,5.5973,5.6001,5.6026,5.6036,0,0,5.5681,5.568,5.5712,5.5702,5.577,5.5757,5.5827,5.5863,5.5871,5.5921,5.5923,5.5966,5.5974,5.6003,5.6093,5.6101,0,0,0,5.5726,5.575,5.5769,5.5802,5.5832,5.5859,5.5885,5.5898,5.5941,5.5896,5.5984,5.5989,5.6006,5.6018,5.6025,5.604,5.5952,5.5952,5.5952,5.579,5.5802,5.5856,5.5876,5.5907,5.5935,5.5961,5.5983,5.5983,5.6003,5.6018,5.6072,5.6086,5.6091,5.6107,5.6032,5.6032,5.6032,5.6032,5.587,5.5905,5.5906,5.5959,5.597,5.6013,5.6041,5.604,5.6081,5.6061,5.6077,5.6055,5.6099,5.6114,5.6034,5.6034,5.6033,5.6033,5.6033,5.5914,5.5932,5.595,5.5999,5.6035,5.6053,5.6093,5.6101,5.6107,5.6123,5.614,5.6139,5.614,5.613,5.6131,5.6131,5.6131,5.6131,5.6131,5.5952,5.5971,5.6006,5.6043,5.6066,5.6096,5.6125,5.6146,5.6171,5.6173,5.6173,5.6171,5.6102,5.6085,5.6134,5.6134,5.6133,5.6133,5.6133,5.6029,5.6013,5.6067,5.609,5.6134,5.617,5.6179,5.6223,5.6241,5.6261,5.6256,5.6204,5.6201,5.6196,5.6182,5.6253,5.6253,5.6253,5.6253,5.6066,5.6067,5.6124,5.616,5.6196,5.6211,5.6269,5.6291,5.6311,5.6323,5.6314,5.6295,5.629,5.6291,5.6284,5.627,5.6363,5.6363,5.6363,5.6114,5.6119,5.6168,5.6191,5.6226,5.6256,5.6311,5.635,5.6369,5.6368,5.6332,5.6328,5.6298,5.6288,5.6285,5.6273,5.6249,0,0]}]]